| time (UTC) | temp F | wind direction | speed MPH | gust MPH | rain 1hr in | rain 24hr in | rain mn in | humidity % | barometer mb |
| 20260510231034 | 68 | 233 | 0.0 | 1.0 | 0.00 | 0.00 | 0.00 | 39 | 1082.0 |
| 20260510230034 | 69 | 337 | 0.0 | 1.0 | 0.00 | 0.00 | 0.00 | 37 | 1082.0 |
| 20260510225035 | 70 | 67 | 0.0 | 0.0 | 0.00 | 0.00 | 0.00 | 37 | 1081.9 |
| 20260510224134 | 71 | 38 | 3.0 | 7.0 | 0.00 | 0.00 | 0.00 | 36 | 1082.0 |
| 20260510223133 | 72 | 22 | 0.0 | 3.0 | 0.00 | 0.00 | 0.00 | 36 | 1081.8 |
| 20260510222135 | 73 | 67 | 0.0 | 0.0 | 0.00 | 0.00 | 0.00 | 35 | 1081.8 |
| 20260510221233 | 74 | 64 | 1.0 | 3.0 | 0.00 | 0.00 | 0.00 | 36 | 1081.9 |
| 20260510215334 | 74 | 22 | 0.0 | 1.0 | 0.00 | 0.00 | 0.00 | 39 | 1082.0 |
| 20260510214336 | 72 | 247 | 0.0 | 0.0 | 0.00 | 0.00 | 0.00 | 39 | 1081.7 |
| 20260510213433 | 72 | 45 | 0.0 | 1.0 | 0.00 | 0.00 | 0.00 | 38 | 1081.4 |
| 20260510211536 | 70 | 292 | 0.0 | 1.0 | 0.00 | 0.00 | 0.00 | 38 | 1081.2 |
| 20260510211434 | 70 | 292 | 1.0 | 2.0 | 0.00 | 0.00 | 0.00 | 37 | 1081.2 |
| 20260510211333 | 70 | 39 | 1.0 | 3.0 | 0.00 | 0.00 | 0.00 | 38 | 1081.2 |
| 20260510210334 | 70 | 44 | 1.0 | 2.0 | 0.00 | 0.00 | 0.00 | 38 | 1081.0 |
| 20260510205334 | 72 | 12 | 0.0 | 2.0 | 0.00 | 0.00 | 0.00 | 38 | 1081.1 |
| 20260510204333 | 72 | 72 | 1.0 | 2.0 | 0.00 | 0.00 | 0.00 | 37 | 1081.2 |
| 20260510203333 | 73 | 349 | 1.0 | 2.0 | 0.00 | 0.00 | 0.00 | 39 | 1081.2 |
| 20260510203232 | 73 | 259 | 0.0 | 0.0 | 0.00 | 0.00 | 0.00 | 40 | 1081.3 |
| 20260510202232 | 72 | 247 | 0.0 | 0.0 | 0.00 | 0.00 | 0.00 | 38 | 1081.2 |
| 20260510201234 | 72 | 67 | 1.0 | 3.0 | 0.00 | 0.00 | 0.00 | 40 | 1081.3 |
| 20260510200251 | 71 | 320 | 0.0 | 2.0 | 0.00 | 0.00 | 0.00 | 39 | 1081.3 |
| 20260510195334 | 72 | 48 | 2.0 | 4.0 | 0.00 | 0.00 | 0.00 | 39 | 1081.4 |
| 20260510194333 | 73 | 18 | 0.0 | 1.0 | 0.00 | 0.00 | 0.00 | 42 | 1081.4 |
| 20260510193335 | 72 | 292 | 0.0 | 0.0 | 0.00 | 0.00 | 0.00 | 42 | 1081.4 |
| 20260510192334 | 72 | 304 | 0.0 | 0.0 | 0.00 | 0.00 | 0.00 | 40 | 1081.4 |
| 20260510191350 | 71 | 360 | 0.0 | 0.0 | 0.00 | 0.00 | 0.00 | 39 | 1081.3 |
| 20260510191234 | 71 | 339 | 0.0 | 1.0 | 0.00 | 0.00 | 0.00 | 39 | 1081.2 |
| 20260510185233 | 70 | 353 | 1.0 | 2.0 | 0.00 | 0.00 | 0.00 | 39 | 1081.2 |
| 20260510184332 | 71 | 170 | 1.0 | 3.0 | 0.00 | 0.00 | 0.00 | 40 | 1081.2 |
| 20260510183334 | 70 | 331 | 1.0 | 3.0 | 0.00 | 0.00 | 0.00 | 42 | 1081.4 |
| 20260510182332 | 70 | 216 | 0.0 | 2.0 | 0.00 | 0.00 | 0.00 | 43 | 1081.3 |
| 20260510180334 | 70 | 294 | 0.0 | 1.0 | 0.00 | 0.00 | 0.00 | 42 | 1081.4 |
| 20260510180235 | 70 | 270 | 0.0 | 0.0 | 0.00 | 0.00 | 0.00 | 43 | 1081.3 |
| 20260510175332 | 69 | 360 | 0.0 | 0.0 | 0.00 | 0.00 | 0.00 | 43 | 1081.4 |
| 20260510175232 | 69 | 11 | 0.0 | 1.0 | 0.00 | 0.00 | 0.00 | 43 | 1081.4 |
| 20260510173333 | 69 | 67 | 3.0 | 5.0 | 0.00 | 0.00 | 0.00 | 45 | 1081.6 |
| 20260510173236 | 69 | 67 | 3.0 | 5.0 | 0.00 | 0.00 | 0.00 | 44 | 1081.6 |
| 20260510171431 | 68 | 242 | 2.0 | 5.0 | 0.00 | 0.00 | 0.00 | 42 | 1081.2 |
| 20260510170433 | 68 | 28 | 1.0 | 3.0 | 0.00 | 0.00 | 0.00 | 42 | 1081.2 |
| 20260510165433 | 68 | 298 | 0.0 | 0.0 | 0.00 | 0.00 | 0.00 | 45 | 1081.2 |
| 20260510164434 | 68 | 270 | 0.0 | 1.0 | 0.00 | 0.00 | 0.00 | 44 | 1081.4 |
| 20260510163433 | 68 | 208 | 0.0 | 2.0 | 0.00 | 0.00 | 0.00 | 43 | 1081.4 |
| 20260510162435 | 68 | 28 | 0.0 | 0.0 | 0.00 | 0.00 | 0.00 | 43 | 1081.4 |
| 20260510161433 | 69 | 61 | 1.0 | 3.0 | 0.00 | 0.00 | 0.00 | 46 | 1081.4 |
| 20260510155532 | 67 | 14 | 2.0 | 2.0 | 0.00 | 0.00 | 0.00 | 43 | 1081.3 |
| 20260510153534 | 66 | 87 | 1.0 | 2.0 | 0.00 | 0.00 | 0.00 | 46 | 1081.2 |
| 20260510152533 | 67 | 120 | 2.0 | 6.0 | 0.00 | 0.00 | 0.00 | 48 | 1081.2 |
| 20260510150533 | 66 | 72 | 1.0 | 3.0 | 0.00 | 0.00 | 0.00 | 48 | 1081.1 |
| 20260510145548 | 65 | 31 | 2.0 | 3.0 | 0.00 | 0.00 | 0.00 | 46 | 1080.8 |
| 20260510144550 | 65 | 66 | 1.0 | 4.0 | 0.00 | 0.00 | 0.00 | 49 | 1080.8 |
| 20260510143634 | 64 | 233 | 1.0 | 4.0 | 0.00 | 0.00 | 0.00 | 50 | 1080.8 |
| 20260510142532 | 63 | 359 | 2.0 | 4.0 | 0.00 | 0.00 | 0.00 | 53 | 1080.5 |
| 20260510140548 | 62 | 52 | 2.0 | 6.0 | 0.00 | 0.00 | 0.00 | 54 | 1080.3 |
| 20260510135548 | 63 | 10 | 1.0 | 4.0 | 0.00 | 0.00 | 0.00 | 56 | 1079.9 |
| 20260510133532 | 62 | 22 | 1.0 | 4.0 | 0.00 | 0.00 | 0.00 | 63 | 1079.5 |
| 20260510133431 | 62 | 22 | 0.0 | 4.0 | 0.00 | 0.00 | 0.00 | 63 | 1079.5 |
| 20260510131432 | 61 | 326 | 0.0 | 4.0 | 0.00 | 0.00 | 0.00 | 70 | 1079.2 |
| 20260510130433 | 60 | 67 | 0.0 | 2.0 | 0.00 | 0.00 | 0.00 | 75 | 1079.0 |
| 20260510124434 | 56 | 60 | 1.0 | 2.0 | 0.00 | 0.00 | 0.00 | 84 | 1078.8 |
| 20260510123532 | 55 | 91 | 0.0 | 1.0 | 0.00 | 0.00 | 0.00 | 87 | 1078.6 |
| 20260510120633 | 53 | 225 | 0.0 | 0.0 | 0.00 | 0.01 | 0.00 | 91 | 1078.0 |
| 20260510115533 | 53 | 225 | 0.0 | 0.0 | 0.00 | 0.01 | 0.00 | 91 | 1077.8 |
| 20260510114535 | 53 | 225 | 0.0 | 0.0 | 0.00 | 0.01 | 0.00 | 91 | 1077.8 |
| 20260510113549 | 53 | 225 | 0.0 | 0.0 | 0.00 | 0.01 | 0.00 | 90 | 1078.0 |
| 20260510112633 | 53 | 225 | 0.0 | 0.0 | 0.00 | 0.01 | 0.00 | 90 | 1078.0 |
| 20260510111732 | 53 | 225 | 0.0 | 0.0 | 0.00 | 0.01 | 0.00 | 92 | 1078.0 |
| 20260510110734 | 53 | 225 | 0.0 | 0.0 | 0.00 | 0.02 | 0.00 | 92 | 1077.5 |
| 20260510104847 | 53 | 225 | 0.0 | 0.0 | 0.00 | 0.02 | 0.00 | 92 | 1077.0 |
| 20260510103834 | 53 | 225 | 0.0 | 0.0 | 0.00 | 0.03 | 0.00 | 93 | 1076.8 |
| 20260510102834 | 53 | 225 | 0.0 | 0.0 | 0.00 | 0.04 | 0.00 | 93 | 1076.8 |
| 20260510101931 | 53 | 225 | 0.0 | 0.0 | 0.00 | 0.05 | 0.00 | 93 | 1076.6 |
| 20260510100932 | 53 | 225 | 0.0 | 0.0 | 0.00 | 0.06 | 0.00 | 93 | 1076.6 |
| 20260510094932 | 52 | 225 | 0.0 | 0.0 | 0.00 | 0.08 | 0.00 | 93 | 1076.2 |
| 20260510093934 | 52 | 225 | 0.0 | 0.0 | 0.00 | 0.09 | 0.00 | 93 | 1076.3 |
| 20260510092932 | 52 | 180 | 0.0 | 0.0 | 0.00 | 0.09 | 0.00 | 92 | 1076.0 |
| 20260510091834 | 51 | 180 | 0.0 | 0.0 | 0.00 | 0.10 | 0.00 | 91 | 1076.0 |
| 20260510090931 | 51 | 180 | 0.0 | 0.0 | 0.00 | 0.11 | 0.00 | 92 | 1076.0 |
| 20260510085934 | 51 | 180 | 0.0 | 0.0 | 0.00 | 0.11 | 0.00 | 92 | 1075.7 |
| 20260510083834 | 51 | 225 | 0.0 | 0.0 | 0.00 | 0.13 | 0.00 | 92 | 1075.4 |
| 20260510082932 | 51 | 225 | 0.0 | 0.0 | 0.00 | 0.13 | 0.00 | 91 | 1075.3 |
| 20260510081933 | 52 | 225 | 0.0 | 0.0 | 0.00 | 0.14 | 0.00 | 92 | 1075.2 |
| 20260510080933 | 52 | 247 | 0.0 | 0.0 | 0.00 | 0.15 | 0.00 | 91 | 1075.0 |
| 20260510080847 | 52 | 247 | 0.0 | 0.0 | 0.00 | 0.15 | 0.00 | 91 | 1074.9 |
| 20260510075834 | 52 | 247 | 0.0 | 0.0 | 0.00 | 0.15 | 0.00 | 90 | 1074.5 |
| 20260510074932 | 52 | 247 | 0.0 | 0.0 | 0.00 | 0.16 | 0.00 | 91 | 1074.4 |
| 20260510073934 | 53 | 247 | 0.0 | 0.0 | 0.00 | 0.16 | 0.00 | 91 | 1074.4 |
| 20260510073833 | 53 | 247 | 0.0 | 0.0 | 0.00 | 0.16 | 0.00 | 90 | 1074.6 |
| 20260510072834 | 53 | 247 | 0.0 | 0.0 | 0.00 | 0.17 | 0.00 | 90 | 1074.6 |
| 20260510071833 | 53 | 202 | 0.0 | 0.0 | 0.00 | 0.17 | 0.00 | 91 | 1074.5 |
| 20260510070832 | 53 | 202 | 0.0 | 0.0 | 0.00 | 0.18 | 0.00 | 91 | 1074.5 |
| 20260510065932 | 53 | 202 | 0.0 | 0.0 | 0.00 | 0.18 | 0.00 | 90 | 1074.7 |
| 20260510064948 | 54 | 225 | 0.0 | 0.0 | 0.00 | 0.19 | 0.00 | 90 | 1074.5 |
| 20260510063037 | 54 | 247 | 0.0 | 0.0 | 0.00 | 0.19 | 0.00 | 90 | 1074.5 |
| 20260510062033 | 54 | 247 | 0.0 | 0.0 | 0.00 | 0.20 | 0.00 | 90 | 1074.7 |
| 20260510061932 | 54 | 247 | 0.0 | 0.0 | 0.00 | 0.20 | 0.00 | 89 | 1074.6 |
| 20260510054932 | 53 | 247 | 0.0 | 0.0 | 0.00 | 0.21 | 0.00 | 90 | 1074.6 |
| 20260510052934 | 53 | 247 | 0.0 | 0.0 | 0.00 | 0.22 | 0.00 | 88 | 1074.5 |
| 20260510051033 | 54 | 247 | 0.0 | 0.0 | 0.00 | 0.23 | 0.00 | 89 | 1074.5 |
| 20260510050033 | 53 | 247 | 0.0 | 0.0 | 0.00 | 0.23 | 0.00 | 89 | 1074.6 |
| 20260510045032 | 53 | 247 | 0.0 | 0.0 | 0.00 | 0.23 | 0.00 | 87 | 1074.3 |
| 20260510044131 | 53 | 247 | 0.0 | 0.0 | 0.00 | 0.23 | 0.00 | 87 | 1074.3 |
| 20260510044047 | 53 | 247 | 0.0 | 0.0 | 0.00 | 0.23 | 0.00 | 87 | 1074.4 |
| 20260510043133 | 54 | 247 | 0.0 | 0.0 | 0.00 | 0.24 | 0.00 | 88 | 1074.4 |
| 20260510041034 | 54 | 220 | 0.0 | 0.0 | 0.00 | 0.24 | 0.00 | 86 | 1074.1 |
| 20260510040131 | 54 | 225 | 0.0 | 2.0 | 0.00 | 0.25 | 0.00 | 85 | 1074.3 |
| 20260510035141 | 54 | 225 | 0.0 | 0.0 | 0.00 | 0.25 | 0.25 | 85 | 1074.3 |
| 20260510034138 | 55 | 225 | 0.0 | 0.0 | 0.00 | 0.25 | 0.25 | 83 | 1074.2 |
| 20260510034041 | 55 | 225 | 0.0 | 0.0 | 0.00 | 0.25 | 0.25 | 83 | 1074.3 |
| 20260510033139 | 55 | 225 | 0.0 | 0.0 | 0.00 | 0.25 | 0.25 | 83 | 1074.4 |
| 20260510032239 | 55 | 225 | 0.0 | 0.0 | 0.00 | 0.25 | 0.25 | 83 | 1074.3 |
| 20260510030338 | 56 | 225 | 0.0 | 1.0 | 0.00 | 0.25 | 0.25 | 81 | 1074.2 |
| 20260510025340 | 57 | 247 | 0.0 | 0.0 | 0.00 | 0.25 | 0.25 | 79 | 1074.2 |
| 20260510024340 | 57 | 225 | 0.0 | 0.0 | 0.00 | 0.25 | 0.25 | 78 | 1073.8 |
| 20260510023239 | 58 | 225 | 0.0 | 1.0 | 0.00 | 0.25 | 0.25 | 77 | 1073.9 |
| 20260510022240 | 58 | 202 | 0.0 | 1.0 | 0.00 | 0.25 | 0.25 | 74 | 1073.9 |
| 20260510021240 | 59 | 202 | 0.0 | 1.0 | 0.00 | 0.25 | 0.25 | 72 | 1073.7 |
| 20260510020239 | 60 | 202 | 0.0 | 0.0 | 0.00 | 0.25 | 0.25 | 71 | 1073.6 |
| 20260510015338 | 60 | 202 | 0.0 | 2.0 | 0.00 | 0.25 | 0.25 | 68 | 1073.2 |
| 20260510015239 | 60 | 202 | 0.0 | 0.0 | 0.00 | 0.25 | 0.25 | 68 | 1073.2 |
| 20260510013239 | 62 | 202 | 0.0 | 1.0 | 0.00 | 0.25 | 0.25 | 66 | 1073.1 |
| 20260510012239 | 62 | 202 | 0.0 | 2.0 | 0.00 | 0.25 | 0.25 | 65 | 1072.8 |
| 20260510011239 | 63 | 180 | 0.0 | 0.0 | 0.00 | 0.25 | 0.25 | 62 | 1072.8 |
| 20260510010240 | 64 | 180 | 0.0 | 0.0 | 0.00 | 0.25 | 0.25 | 61 | 1072.8 |
| 20260510003339 | 66 | 202 | 0.0 | 1.0 | 0.00 | 0.25 | 0.25 | 57 | 1072.2 |
| 20260510002337 | 68 | 225 | 0.0 | 1.0 | 0.00 | 0.25 | 0.25 | 55 | 1072.0 |
| 20260510001339 | 68 | 176 | 0.0 | 0.0 | 0.00 | 0.25 | 0.25 | 55 | 1071.9 |
| 20260510000356 | 69 | 198 | 3.0 | 6.0 | 0.00 | 0.25 | 0.25 | 55 | 1071.8 |
| 20260510000241 | 69 | 233 | 2.0 | 5.0 | 0.00 | 0.25 | 0.25 | 55 | 1071.8 |
| 20260509235240 | 70 | 202 | 0.0 | 2.0 | 0.00 | 0.25 | 0.25 | 53 | 1071.6 |
| 20260509233338 | 71 | 225 | 0.0 | 1.0 | 0.00 | 0.25 | 0.25 | 52 | 1071.5 |
| 20260509232339 | 71 | 167 | 0.0 | 2.0 | 0.00 | 0.25 | 0.25 | 49 | 1071.4 |